Torna al catalogo

GXIBA-1

AttivoScienzaVLEO
NORAD 67685·PAYLOAD·🇲🇽 Mexico

Lanciato Nov 20, 1998 da Baikonur Cosmodrome

Loading…

Prossimi Passaggi (prossime 24 ore)

TLE

AggiornatoSource: Space-Track

Epoca: Sep 13, 2026, 21:21 UTC

1 67685U 98067YB  26256.88961024  .00087195  00000-0  63503-3 0  9991
2 67685  51.6218 203.0684 0008660 155.4995 204.6416 15.72523767 34193

Traccia GXIBA-1 in tempo reale con AllMySat

Download on the App Store